| time (UTC) | temp F | wind direction | speed MPH | gust MPH | rain 1hr in | rain 24hr in | rain mn in | humidity % | barometer mb |
| 20260507220637 | 59 | 264 | 2.0 | 3.0 | 0.00 | 0.00 | 0.00 | 40 | 1010.5 |
| 20260507220136 | 59 | 256 | 0.0 | 1.0 | 0.00 | 0.00 | 0.00 | 43 | 1010.5 |
| 20260507215631 | 59 | 232 | 2.0 | 2.0 | 0.00 | 0.00 | 0.00 | 42 | 1010.4 |
| 20260507215129 | 59 | 262 | 0.0 | 1.0 | 0.00 | 0.00 | 0.00 | 42 | 1010.4 |
| 20260507214626 | 58 | 256 | 0.0 | 1.0 | 0.00 | 0.00 | 0.00 | 42 | 1010.5 |
| 20260507214122 | 59 | 191 | 2.0 | 3.0 | 0.00 | 0.00 | 0.00 | 41 | 1010.5 |
| 20260507213618 | 59 | 252 | 1.0 | 1.0 | 0.00 | 0.00 | 0.00 | 40 | 1010.3 |
| 20260507213116 | 60 | 311 | 1.0 | 2.0 | 0.00 | 0.00 | 0.00 | 40 | 1010.2 |
| 20260507212612 | 60 | 228 | 2.0 | 2.0 | 0.00 | 0.00 | 0.00 | 38 | 1010.3 |
| 20260507212109 | 60 | 227 | 2.0 | 2.0 | 0.00 | 0.00 | 0.00 | 39 | 1010.5 |
| 20260507211605 | 60 | 183 | 2.0 | 2.0 | 0.00 | 0.00 | 0.00 | 38 | 1010.2 |
| 20260507211101 | 60 | 223 | 2.0 | 2.0 | 0.00 | 0.00 | 0.00 | 39 | 1010.3 |
| 20260507210559 | 60 | 272 | 0.0 | 0.0 | 0.00 | 0.00 | 0.00 | 38 | 1010.4 |
| 20260507210055 | 60 | 338 | 3.0 | 5.0 | 0.00 | 0.00 | 0.00 | 39 | 1010.3 |
| 20260507205552 | 61 | 202 | 3.0 | 3.0 | 0.00 | 0.00 | 0.00 | 38 | 1009.9 |
| 20260507205048 | 60 | 238 | 0.0 | 1.0 | 0.00 | 0.00 | 0.00 | 40 | 1010.0 |
| 20260507204545 | 59 | 286 | 1.0 | 1.0 | 0.00 | 0.00 | 0.00 | 40 | 1010.0 |
| 20260507204042 | 60 | 178 | 3.0 | 3.0 | 0.00 | 0.00 | 0.00 | 41 | 1010.4 |
| 20260507203540 | 60 | 258 | 1.0 | 1.0 | 0.00 | 0.00 | 0.00 | 42 | 1010.3 |
| 20260507203037 | 60 | 240 | 2.0 | 2.0 | 0.00 | 0.00 | 0.00 | 40 | 1010.2 |
| 20260507202533 | 60 | 218 | 1.0 | 2.0 | 0.00 | 0.00 | 0.00 | 40 | 1010.1 |
| 20260507202029 | 61 | 202 | 3.0 | 3.0 | 0.00 | 0.00 | 0.00 | 40 | 1010.4 |
| 20260507201525 | 62 | 199 | 5.0 | 5.0 | 0.00 | 0.00 | 0.00 | 40 | 1010.2 |
| 20260507201021 | 61 | 271 | 0.0 | 1.0 | 0.00 | 0.00 | 0.00 | 38 | 1010.3 |
| 20260507200517 | 60 | 211 | 4.0 | 6.0 | 0.00 | 0.00 | 0.00 | 41 | 1010.4 |
| 20260507200013 | 60 | 248 | 1.0 | 1.0 | 0.00 | 0.00 | 0.00 | 43 | 1010.5 |
| 20260507195511 | 60 | 223 | 2.0 | 2.0 | 0.00 | 0.00 | 0.00 | 42 | 1010.6 |
| 20260507195008 | 61 | 233 | 1.0 | 2.0 | 0.00 | 0.00 | 0.00 | 41 | 1010.6 |
| 20260507194504 | 60 | 211 | 1.0 | 2.0 | 0.00 | 0.00 | 0.00 | 42 | 1010.4 |
| 20260507194000 | 61 | 241 | 1.0 | 2.0 | 0.00 | 0.00 | 0.00 | 41 | 1010.7 |
| 20260507193458 | 61 | 274 | 2.0 | 2.0 | 0.00 | 0.00 | 0.00 | 42 | 1010.8 |
| 20260507192954 | 60 | 231 | 2.0 | 2.0 | 0.00 | 0.00 | 0.00 | 42 | 1010.6 |
| 20260507192450 | 60 | 204 | 3.0 | 3.0 | 0.00 | 0.00 | 0.00 | 44 | 1010.8 |
| 20260507191947 | 59 | 243 | 2.0 | 2.0 | 0.00 | 0.00 | 0.00 | 45 | 1010.8 |
| 20260507191443 | 59 | 219 | 2.0 | 2.0 | 0.00 | 0.00 | 0.00 | 44 | 1010.8 |
| 20260507190940 | 59 | 230 | 3.0 | 3.0 | 0.00 | 0.00 | 0.00 | 44 | 1010.8 |
| 20260507190438 | 59 | 236 | 1.0 | 2.0 | 0.00 | 0.00 | 0.00 | 46 | 1010.7 |
| 20260507185936 | 59 | 216 | 3.0 | 3.0 | 0.00 | 0.00 | 0.00 | 46 | 1010.7 |
| 20260507185433 | 60 | 256 | 1.0 | 2.0 | 0.00 | 0.00 | 0.00 | 44 | 1010.9 |
| 20260507184930 | 60 | 251 | 2.0 | 3.0 | 0.00 | 0.00 | 0.00 | 46 | 1011.0 |
| 20260507184428 | 59 | 212 | 3.0 | 3.0 | 0.00 | 0.00 | 0.00 | 46 | 1010.9 |
| 20260507183926 | 59 | 260 | 0.0 | 0.0 | 0.00 | 0.00 | 0.00 | 45 | 1011.3 |
| 20260507183422 | 59 | 270 | 0.0 | 0.0 | 0.00 | 0.00 | 0.00 | 47 | 1011.1 |
| 20260507182920 | 58 | 230 | 1.0 | 2.0 | 0.00 | 0.00 | 0.00 | 47 | 1011.0 |
| 20260507182415 | 59 | 225 | 3.0 | 5.0 | 0.00 | 0.00 | 0.00 | 45 | 1011.1 |
| 20260507181912 | 59 | 261 | 0.0 | 0.0 | 0.00 | 0.00 | 0.00 | 46 | 1011.1 |
| 20260507181408 | 60 | 210 | 4.0 | 5.0 | 0.00 | 0.00 | 0.00 | 44 | 1011.2 |
| 20260507180904 | 60 | 260 | 0.0 | 2.0 | 0.00 | 0.00 | 0.00 | 44 | 1011.3 |
| 20260507180401 | 61 | 188 | 3.0 | 5.0 | 0.00 | 0.00 | 0.00 | 43 | 1011.3 |
| 20260507175857 | 60 | 212 | 2.0 | 3.0 | 0.00 | 0.00 | 0.00 | 45 | 1011.3 |
| 20260507175354 | 59 | 222 | 3.0 | 3.0 | 0.00 | 0.00 | 0.00 | 47 | 1011.2 |
| 20260507174852 | 60 | 176 | 6.0 | 7.0 | 0.00 | 0.00 | 0.00 | 47 | 1011.2 |
| 20260507174349 | 60 | 229 | 3.0 | 3.0 | 0.00 | 0.00 | 0.00 | 45 | 1011.5 |
| 20260507173847 | 60 | 188 | 3.0 | 6.0 | 0.00 | 0.00 | 0.00 | 44 | 1011.3 |
| 20260507173343 | 60 | 261 | 0.0 | 0.0 | 0.00 | 0.00 | 0.00 | 48 | 1011.5 |
| 20260507172839 | 58 | 258 | 0.0 | 1.0 | 0.00 | 0.00 | 0.00 | 49 | 1011.7 |
| 20260507172336 | 58 | 232 | 1.0 | 1.0 | 0.00 | 0.00 | 0.00 | 47 | 1011.8 |
| 20260507171832 | 59 | 255 | 1.0 | 2.0 | 0.00 | 0.00 | 0.00 | 45 | 1011.6 |
| 20260507171329 | 60 | 209 | 2.0 | 3.0 | 0.00 | 0.00 | 0.00 | 46 | 1011.8 |
| 20260507170826 | 58 | 193 | 5.0 | 6.0 | 0.00 | 0.00 | 0.00 | 46 | 1011.7 |
| 20260507170323 | 58 | 260 | 2.0 | 2.0 | 0.00 | 0.00 | 0.00 | 48 | 1011.9 |
| 20260507165819 | 58 | 210 | 2.0 | 2.0 | 0.00 | 0.00 | 0.00 | 46 | 1012.0 |
| 20260507165315 | 59 | 206 | 5.0 | 6.0 | 0.00 | 0.00 | 0.00 | 45 | 1012.0 |
| 20260507164811 | 59 | 226 | 3.0 | 3.0 | 0.00 | 0.00 | 0.00 | 45 | 1012.1 |
| 20260507164308 | 60 | 234 | 2.0 | 2.0 | 0.00 | 0.00 | 0.00 | 43 | 1012.0 |
| 20260507163805 | 60 | 249 | 0.0 | 0.0 | 0.00 | 0.00 | 0.00 | 46 | 1012.2 |
| 20260507163303 | 58 | 242 | 2.0 | 3.0 | 0.00 | 0.00 | 0.00 | 45 | 1012.3 |
| 20260507162759 | 58 | 253 | 2.0 | 3.0 | 0.00 | 0.00 | 0.00 | 47 | 1012.3 |
| 20260507162255 | 57 | 237 | 3.0 | 3.0 | 0.00 | 0.00 | 0.00 | 45 | 1012.3 |
| 20260507161752 | 56 | 266 | 1.0 | 2.0 | 0.00 | 0.00 | 0.00 | 51 | 1012.4 |
| 20260507161248 | 56 | 238 | 2.0 | 2.0 | 0.00 | 0.00 | 0.00 | 50 | 1012.4 |
| 20260507160744 | 56 | 215 | 3.0 | 3.0 | 0.00 | 0.00 | 0.00 | 49 | 1012.4 |
| 20260507160241 | 57 | 215 | 3.0 | 3.0 | 0.00 | 0.00 | 0.00 | 50 | 1012.4 |
| 20260507155737 | 56 | 232 | 0.0 | 1.0 | 0.00 | 0.00 | 0.00 | 48 | 1012.4 |
| 20260507155233 | 56 | 252 | 1.0 | 1.0 | 0.00 | 0.00 | 0.00 | 52 | 1012.7 |
| 20260507154730 | 55 | 261 | 1.0 | 1.0 | 0.00 | 0.00 | 0.00 | 55 | 1012.5 |
| 20260507154228 | 55 | 175 | 3.0 | 5.0 | 0.00 | 0.00 | 0.00 | 53 | 1012.6 |
| 20260507153724 | 55 | 256 | 1.0 | 1.0 | 0.00 | 0.00 | 0.00 | 50 | 1012.8 |
| 20260507153220 | 55 | 223 | 1.0 | 2.0 | 0.00 | 0.00 | 0.00 | 50 | 1012.8 |
| 20260507152717 | 56 | 171 | 3.0 | 3.0 | 0.00 | 0.00 | 0.00 | 50 | 1012.6 |
| 20260507152213 | 55 | 247 | 2.0 | 2.0 | 0.00 | 0.00 | 0.00 | 50 | 1012.7 |
| 20260507151709 | 55 | 223 | 2.0 | 2.0 | 0.00 | 0.00 | 0.00 | 53 | 1012.8 |
| 20260507151206 | 55 | 199 | 2.0 | 2.0 | 0.00 | 0.00 | 0.00 | 53 | 1013.1 |
| 20260507150703 | 56 | 256 | 0.0 | 1.0 | 0.00 | 0.00 | 0.00 | 53 | 1013.1 |
| 20260507150159 | 57 | 253 | 0.0 | 1.0 | 0.00 | 0.00 | 0.00 | 50 | 1013.2 |
| 20260507145655 | 56 | 250 | 3.0 | 5.0 | 0.00 | 0.00 | 0.00 | 51 | 1013.3 |
| 20260507145152 | 55 | 261 | 0.0 | 1.0 | 0.00 | 0.00 | 0.00 | 53 | 1013.7 |
| 20260507144649 | 55 | 261 | 1.0 | 2.0 | 0.00 | 0.00 | 0.00 | 53 | 1013.4 |
| 20260507144147 | 55 | 259 | 0.0 | 0.0 | 0.00 | 0.00 | 0.00 | 49 | 1013.4 |
| 20260507143643 | 56 | 217 | 0.0 | 1.0 | 0.00 | 0.00 | 0.00 | 52 | 1013.5 |
| 20260507143141 | 55 | 264 | 1.0 | 1.0 | 0.00 | 0.00 | 0.00 | 51 | 1013.4 |
| 20260507142636 | 54 | 263 | 0.0 | 0.0 | 0.00 | 0.00 | 0.00 | 53 | 1013.6 |
| 20260507142133 | 55 | 226 | 3.0 | 3.0 | 0.00 | 0.00 | 0.00 | 53 | 1013.6 |
| 20260507141629 | 55 | 220 | 1.0 | 1.0 | 0.00 | 0.00 | 0.00 | 56 | 1013.5 |
| 20260507141126 | 54 | 241 | 2.0 | 2.0 | 0.00 | 0.00 | 0.00 | 59 | 1013.9 |
| 20260507140623 | 53 | 261 | 1.0 | 1.0 | 0.00 | 0.00 | 0.00 | 59 | 1013.9 |
| 20260507140120 | 53 | 231 | 3.0 | 3.0 | 0.00 | 0.00 | 0.00 | 58 | 1013.9 |
| 20260507135617 | 53 | 211 | 3.0 | 3.0 | 0.00 | 0.00 | 0.00 | 60 | 1014.0 |
| 20260507135115 | 53 | 230 | 3.0 | 5.0 | 0.00 | 0.00 | 0.00 | 60 | 1014.0 |
| 20260507134611 | 52 | 255 | 0.0 | 1.0 | 0.00 | 0.00 | 0.00 | 61 | 1014.1 |
| 20260507134107 | 52 | 234 | 2.0 | 3.0 | 0.00 | 0.00 | 0.00 | 65 | 1014.1 |
| 20260507133603 | 51 | 250 | 1.0 | 2.0 | 0.00 | 0.00 | 0.00 | 65 | 1014.1 |
| 20260507133101 | 51 | 259 | 1.0 | 1.0 | 0.00 | 0.00 | 0.00 | 67 | 1014.3 |
| 20260507132557 | 51 | 254 | 1.0 | 2.0 | 0.00 | 0.00 | 0.00 | 67 | 1014.3 |
| 20260507132054 | 51 | 257 | 1.0 | 1.0 | 0.00 | 0.00 | 0.00 | 69 | 1014.3 |
| 20260507131551 | 50 | 253 | 1.0 | 1.0 | 0.00 | 0.00 | 0.00 | 69 | 1014.5 |
| 20260507131048 | 50 | 229 | 3.0 | 3.0 | 0.00 | 0.00 | 0.00 | 71 | 1014.3 |
| 20260507130545 | 49 | 240 | 3.0 | 3.0 | 0.00 | 0.00 | 0.00 | 72 | 1014.2 |
| 20260507130043 | 50 | 199 | 4.0 | 5.0 | 0.00 | 0.00 | 0.00 | 72 | 1014.0 |
| 20260507125541 | 50 | 226 | 2.0 | 2.0 | 0.00 | 0.00 | 0.00 | 72 | 1014.4 |
| 20260507125038 | 49 | 252 | 1.0 | 2.0 | 0.00 | 0.00 | 0.00 | 70 | 1014.2 |
| 20260507124534 | 49 | 240 | 2.0 | 2.0 | 0.00 | 0.00 | 0.00 | 72 | 1014.3 |
| 20260507124032 | 48 | 232 | 3.0 | 3.0 | 0.00 | 0.00 | 0.00 | 73 | 1014.4 |
| 20260507123530 | 48 | 226 | 1.0 | 2.0 | 0.00 | 0.00 | 0.00 | 75 | 1014.4 |
| 20260507123027 | 47 | 239 | 2.0 | 2.0 | 0.00 | 0.00 | 0.00 | 77 | 1014.2 |
| 20260507122522 | 47 | 237 | 1.0 | 1.0 | 0.00 | 0.00 | 0.00 | 79 | 1014.4 |
| 20260507122018 | 46 | 234 | 2.0 | 2.0 | 0.00 | 0.00 | 0.00 | 81 | 1014.4 |
| 20260507121514 | 46 | 254 | 1.0 | 2.0 | 0.00 | 0.00 | 0.00 | 82 | 1014.3 |
| 20260507121010 | 45 | 245 | 1.0 | 1.0 | 0.00 | 0.00 | 0.00 | 85 | 1014.3 |
| 20260507120506 | 44 | 253 | 1.0 | 1.0 | 0.00 | 0.00 | 0.00 | 87 | 1014.3 |
| 20260507120004 | 43 | 253 | 1.0 | 1.0 | 0.00 | 0.00 | 0.00 | 88 | 1014.3 |
| 20260507115459 | 42 | 256 | 0.0 | 0.0 | 0.00 | 0.00 | 0.00 | 90 | 1014.2 |
| 20260507114955 | 41 | 256 | 0.0 | 0.0 | 0.00 | 0.00 | 0.00 | 91 | 1014.2 |
| 20260507114452 | 41 | 257 | 0.0 | 0.0 | 0.00 | 0.00 | 0.00 | 91 | 1014.2 |
| 20260507113949 | 40 | 262 | 0.0 | 0.0 | 0.00 | 0.00 | 0.00 | 91 | 1014.3 |
| 20260507113446 | 40 | 263 | 0.0 | 0.0 | 0.00 | 0.00 | 0.00 | 91 | 1014.2 |
| 20260507112943 | 39 | 263 | 0.0 | 0.0 | 0.00 | 0.00 | 0.00 | 91 | 1014.2 |
| 20260507112441 | 39 | 263 | 0.0 | 0.0 | 0.00 | 0.00 | 0.00 | 91 | 1013.9 |
| 20260507111937 | 39 | 263 | 0.0 | 0.0 | 0.00 | 0.00 | 0.00 | 91 | 1014.0 |
| 20260507111435 | 38 | 263 | 0.0 | 0.0 | 0.00 | 0.00 | 0.00 | 91 | 1013.9 |
| 20260507110931 | 38 | 263 | 0.0 | 0.0 | 0.00 | 0.00 | 0.00 | 91 | 1013.9 |
| 20260507110427 | 38 | 263 | 0.0 | 0.0 | 0.00 | 0.00 | 0.00 | 91 | 1013.9 |
| 20260507105924 | 38 | 262 | 0.0 | 0.0 | 0.00 | 0.00 | 0.00 | 91 | 1013.8 |
| 20260507105421 | 38 | 262 | 0.0 | 0.0 | 0.00 | 0.00 | 0.00 | 91 | 1014.1 |
| 20260507104917 | 38 | 262 | 0.0 | 0.0 | 0.00 | 0.00 | 0.00 | 91 | 1013.8 |
| 20260507104415 | 38 | 263 | 0.0 | 0.0 | 0.00 | 0.00 | 0.00 | 90 | 1013.6 |
| 20260507103910 | 38 | 262 | 0.0 | 0.0 | 0.00 | 0.00 | 0.00 | 90 | 1013.5 |
| 20260507103407 | 38 | 262 | 0.0 | 0.0 | 0.00 | 0.00 | 0.00 | 90 | 1013.6 |
| 20260507102903 | 38 | 267 | 0.0 | 0.0 | 0.00 | 0.00 | 0.00 | 90 | 1013.5 |
| 20260507102400 | 38 | 268 | 0.0 | 0.0 | 0.00 | 0.00 | 0.00 | 90 | 1013.7 |
| 20260507101856 | 38 | 268 | 0.0 | 0.0 | 0.00 | 0.00 | 0.00 | 89 | 1013.6 |
| 20260507101356 | 38 | 264 | 0.0 | 0.0 | 0.00 | 0.00 | 0.00 | 89 | 1013.8 |
| 20260507100854 | 38 | 263 | 0.0 | 0.0 | 0.00 | 0.00 | 0.00 | 89 | 1013.8 |
| 20260507100351 | 38 | 262 | 0.0 | 0.0 | 0.00 | 0.00 | 0.00 | 89 | 1013.6 |
| 20260507095849 | 38 | 262 | 0.0 | 0.0 | 0.00 | 0.00 | 0.00 | 89 | 1013.7 |
| 20260507095345 | 38 | 262 | 0.0 | 0.0 | 0.00 | 0.00 | 0.00 | 89 | 1013.6 |
| 20260507094843 | 38 | 262 | 0.0 | 0.0 | 0.00 | 0.00 | 0.00 | 88 | 1013.5 |
| 20260507094339 | 38 | 264 | 0.0 | 0.0 | 0.00 | 0.00 | 0.00 | 88 | 1013.7 |
| 20260507093837 | 38 | 265 | 0.0 | 0.0 | 0.00 | 0.00 | 0.00 | 88 | 1013.5 |
| 20260507093335 | 38 | 265 | 0.0 | 0.0 | 0.00 | 0.00 | 0.00 | 88 | 1013.5 |
| 20260507092833 | 38 | 265 | 0.0 | 0.0 | 0.00 | 0.00 | 0.00 | 88 | 1013.5 |
| 20260507092329 | 38 | 265 | 0.0 | 0.0 | 0.00 | 0.00 | 0.00 | 87 | 1013.5 |
| 20260507091825 | 39 | 264 | 0.0 | 0.0 | 0.00 | 0.00 | 0.00 | 87 | 1013.8 |
| 20260507091322 | 39 | 265 | 0.0 | 0.0 | 0.00 | 0.00 | 0.00 | 87 | 1013.8 |
| 20260507090817 | 39 | 265 | 0.0 | 0.0 | 0.00 | 0.00 | 0.00 | 87 | 1013.7 |
| 20260507090314 | 39 | 266 | 0.0 | 0.0 | 0.00 | 0.00 | 0.00 | 87 | 1013.7 |
| 20260507085811 | 39 | 263 | 0.0 | 0.0 | 0.00 | 0.00 | 0.00 | 87 | 1013.8 |
| 20260507085308 | 39 | 263 | 0.0 | 0.0 | 0.00 | 0.00 | 0.00 | 86 | 1013.7 |
| 20260507084805 | 39 | 264 | 0.0 | 0.0 | 0.00 | 0.00 | 0.00 | 86 | 1013.6 |
| 20260507084301 | 39 | 265 | 0.0 | 0.0 | 0.00 | 0.00 | 0.00 | 86 | 1013.6 |
| 20260507083759 | 40 | 269 | 0.0 | 1.0 | 0.00 | 0.00 | 0.00 | 86 | 1013.9 |
| 20260507083255 | 40 | 270 | 0.0 | 0.0 | 0.00 | 0.00 | 0.00 | 86 | 1013.6 |
| 20260507082751 | 40 | 264 | 0.0 | 0.0 | 0.00 | 0.00 | 0.00 | 86 | 1013.5 |
| 20260507082247 | 40 | 265 | 0.0 | 0.0 | 0.00 | 0.00 | 0.00 | 86 | 1013.5 |
| 20260507081744 | 40 | 273 | 1.0 | 1.0 | 0.00 | 0.00 | 0.00 | 86 | 1013.6 |
| 20260507081240 | 40 | 266 | 0.0 | 0.0 | 0.00 | 0.00 | 0.00 | 86 | 1013.8 |
| 20260507080737 | 40 | 266 | 0.0 | 0.0 | 0.00 | 0.00 | 0.00 | 86 | 1013.7 |
| 20260507080233 | 41 | 267 | 0.0 | 0.0 | 0.00 | 0.00 | 0.00 | 86 | 1013.4 |
| 20260507075729 | 41 | 266 | 0.0 | 0.0 | 0.00 | 0.00 | 0.00 | 86 | 1013.6 |
| 20260507075225 | 41 | 267 | 0.0 | 0.0 | 0.00 | 0.00 | 0.00 | 85 | 1013.7 |
| 20260507074721 | 41 | 265 | 0.0 | 0.0 | 0.00 | 0.00 | 0.00 | 85 | 1013.7 |
| 20260507074220 | 41 | 265 | 0.0 | 0.0 | 0.00 | 0.00 | 0.00 | 85 | 1013.7 |
| 20260507073716 | 41 | 266 | 0.0 | 0.0 | 0.00 | 0.00 | 0.00 | 84 | 1013.9 |
| 20260507073213 | 42 | 268 | 0.0 | 0.0 | 0.00 | 0.00 | 0.00 | 84 | 1013.8 |
| 20260507072711 | 42 | 270 | 0.0 | 0.0 | 0.00 | 0.00 | 0.00 | 83 | 1013.9 |
| 20260507072208 | 42 | 268 | 0.0 | 0.0 | 0.00 | 0.00 | 0.00 | 83 | 1013.6 |
| 20260507071705 | 42 | 267 | 0.0 | 0.0 | 0.00 | 0.00 | 0.00 | 83 | 1013.7 |
| 20260507071201 | 42 | 266 | 0.0 | 0.0 | 0.00 | 0.00 | 0.00 | 82 | 1013.7 |
| 20260507070659 | 43 | 268 | 0.0 | 0.0 | 0.00 | 0.00 | 0.00 | 82 | 1013.8 |
| 20260507070155 | 43 | 269 | 0.0 | 0.0 | 0.00 | 0.00 | 0.00 | 81 | 1013.6 |
| 20260507065651 | 44 | 264 | 0.0 | 0.0 | 0.00 | 0.00 | 0.00 | 80 | 1013.7 |
| 20260507065149 | 44 | 264 | 0.0 | 0.0 | 0.00 | 0.00 | 0.00 | 79 | 1013.8 |
| 20260507064646 | 44 | 262 | 0.0 | 0.0 | 0.00 | 0.00 | 0.00 | 78 | 1013.9 |
| 20260507064144 | 45 | 262 | 0.0 | 0.0 | 0.00 | 0.00 | 0.00 | 79 | 1013.8 |
| 20260507063642 | 45 | 264 | 0.0 | 0.0 | 0.00 | 0.00 | 0.00 | 77 | 1013.7 |
| 20260507063138 | 46 | 262 | 0.0 | 0.0 | 0.00 | 0.00 | 0.00 | 77 | 1013.7 |
| 20260507062635 | 46 | 262 | 0.0 | 0.0 | 0.00 | 0.00 | 0.00 | 77 | 1013.7 |
| 20260507062133 | 47 | 262 | 0.0 | 0.0 | 0.00 | 0.00 | 0.00 | 78 | 1013.6 |
| 20260507061631 | 47 | 262 | 0.0 | 0.0 | 0.00 | 0.00 | 0.00 | 75 | 1013.9 |
| 20260507061128 | 47 | 265 | 0.0 | 0.0 | 0.00 | 0.00 | 0.00 | 72 | 1013.8 |
| 20260507060626 | 47 | 265 | 0.0 | 0.0 | 0.00 | 0.00 | 0.00 | 72 | 1013.8 |
| 20260507060122 | 46 | 266 | 0.0 | 0.0 | 0.00 | 0.00 | 0.00 | 72 | 1013.9 |
| 20260507055618 | 46 | 265 | 0.0 | 0.0 | 0.00 | 0.00 | 0.00 | 73 | 1014.2 |
| 20260507055114 | 46 | 264 | 0.0 | 0.0 | 0.00 | 0.00 | 0.00 | 75 | 1014.1 |
| 20260507054610 | 47 | 261 | 0.0 | 0.0 | 0.00 | 0.00 | 0.00 | 75 | 1014.2 |
| 20260507054107 | 47 | 263 | 0.0 | 0.0 | 0.00 | 0.00 | 0.00 | 76 | 1014.2 |
| 20260507053605 | 47 | 260 | 0.0 | 0.0 | 0.00 | 0.00 | 0.00 | 75 | 1014.4 |
| 20260507053104 | 47 | 263 | 0.0 | 0.0 | 0.00 | 0.00 | 0.00 | 75 | 1014.6 |
| 20260507052601 | 47 | 262 | 0.0 | 0.0 | 0.00 | 0.00 | 0.00 | 73 | 1014.3 |
| 20260507052058 | 47 | 262 | 0.0 | 0.0 | 0.00 | 0.00 | 0.00 | 73 | 1014.5 |
| 20260507051555 | 47 | 262 | 0.0 | 0.0 | 0.00 | 0.00 | 0.00 | 73 | 1014.4 |
| 20260507051052 | 48 | 262 | 0.0 | 0.0 | 0.00 | 0.00 | 0.00 | 73 | 1014.5 |
| 20260507050549 | 48 | 264 | 0.0 | 0.0 | 0.00 | 0.00 | 0.00 | 71 | 1014.4 |
| 20260507050045 | 48 | 275 | 1.0 | 2.0 | 0.00 | 0.00 | 0.00 | 71 | 1014.4 |
| 20260507045542 | 48 | 267 | 0.0 | 0.0 | 0.00 | 0.00 | 0.00 | 72 | 1014.3 |
| 20260507045039 | 48 | 262 | 0.0 | 0.0 | 0.00 | 0.00 | 0.00 | 70 | 1014.2 |
| 20260507044535 | 48 | 265 | 0.0 | 0.0 | 0.00 | 0.00 | 0.00 | 68 | 1014.4 |
| 20260507044033 | 48 | 266 | 1.0 | 1.0 | 0.00 | 0.00 | 0.00 | 68 | 1014.4 |
| 20260507043528 | 48 | 270 | 0.0 | 0.0 | 0.00 | 0.00 | 0.00 | 69 | 1014.1 |
| 20260507043026 | 48 | 276 | 0.0 | 0.0 | 0.00 | 0.00 | 0.00 | 71 | 1014.3 |
| 20260507042522 | 48 | 267 | 0.0 | 0.0 | 0.00 | 0.00 | 0.00 | 73 | 1014.2 |
| 20260507042017 | 48 | 263 | 0.0 | 0.0 | 0.00 | 0.00 | 0.00 | 72 | 1014.3 |
| 20260507041515 | 48 | 273 | 0.0 | 0.0 | 0.00 | 0.00 | 0.00 | 70 | 1014.3 |
| 20260507041011 | 48 | 265 | 0.0 | 0.0 | 0.00 | 0.00 | 0.00 | 73 | 1014.4 |
| 20260507040507 | 49 | 261 | 0.0 | 0.0 | 0.00 | 0.00 | 0.00 | 71 | 1014.3 |
| 20260507040004 | 49 | 264 | 0.0 | 0.0 | 0.00 | 0.53 | 0.53 | 69 | 1014.3 |
| 20260507035500 | 49 | 264 | 0.0 | 0.0 | 0.00 | 0.53 | 0.53 | 67 | 1014.3 |
| 20260507034956 | 49 | 268 | 0.0 | 0.0 | 0.00 | 0.53 | 0.53 | 67 | 1014.0 |
| 20260507034453 | 49 | 265 | 0.0 | 0.0 | 0.00 | 0.53 | 0.53 | 67 | 1014.1 |
| 20260507033951 | 49 | 264 | 0.0 | 0.0 | 0.00 | 0.53 | 0.53 | 67 | 1014.0 |
| 20260507033449 | 49 | 264 | 0.0 | 0.0 | 0.00 | 0.53 | 0.53 | 68 | 1014.1 |
| 20260507032946 | 49 | 261 | 0.0 | 0.0 | 0.00 | 0.53 | 0.53 | 67 | 1014.0 |
| 20260507032443 | 49 | 270 | 1.0 | 1.0 | 0.00 | 0.53 | 0.53 | 66 | 1014.0 |
| 20260507031939 | 49 | 264 | 1.0 | 1.0 | 0.00 | 0.53 | 0.53 | 66 | 1013.9 |
| 20260507031435 | 49 | 277 | 0.0 | 1.0 | 0.00 | 0.53 | 0.53 | 66 | 1014.0 |
| 20260507030932 | 49 | 266 | 0.0 | 1.0 | 0.00 | 0.53 | 0.53 | 66 | 1013.8 |
| 20260507030430 | 49 | 263 | 0.0 | 0.0 | 0.00 | 0.53 | 0.53 | 66 | 1013.8 |
| 20260507025927 | 50 | 277 | 1.0 | 1.0 | 0.00 | 0.53 | 0.53 | 65 | 1014.0 |
| 20260507025424 | 49 | 306 | 2.0 | 2.0 | 0.00 | 0.53 | 0.53 | 65 | 1013.7 |
| 20260507024922 | 50 | 284 | 1.0 | 1.0 | 0.00 | 0.53 | 0.53 | 67 | 1013.8 |
| 20260507024419 | 50 | 308 | 2.0 | 2.0 | 0.00 | 0.53 | 0.53 | 67 | 1013.8 |
| 20260507023914 | 50 | 264 | 0.0 | 0.0 | 0.00 | 0.53 | 0.53 | 67 | 1013.7 |
| 20260507023412 | 50 | 265 | 0.0 | 0.0 | 0.00 | 0.53 | 0.53 | 68 | 1013.9 |
| 20260507022909 | 50 | 264 | 0.0 | 0.0 | 0.00 | 0.53 | 0.53 | 67 | 1013.8 |
| 20260507022405 | 50 | 268 | 1.0 | 1.0 | 0.00 | 0.53 | 0.53 | 65 | 1013.8 |
| 20260507021901 | 50 | 325 | 2.0 | 3.0 | 0.00 | 0.53 | 0.53 | 65 | 1013.6 |
| 20260507021356 | 50 | 284 | 2.0 | 2.0 | 0.00 | 0.53 | 0.53 | 65 | 1013.6 |
| 20260507020855 | 50 | 269 | 0.0 | 1.0 | 0.00 | 0.53 | 0.53 | 66 | 1013.5 |
| 20260507020351 | 50 | 265 | 0.0 | 0.0 | 0.00 | 0.53 | 0.53 | 66 | 1013.6 |
| 20260507015848 | 50 | 265 | 1.0 | 2.0 | 0.00 | 0.53 | 0.53 | 67 | 1013.4 |
| 20260507015346 | 50 | 264 | 0.0 | 0.0 | 0.00 | 0.53 | 0.53 | 66 | 1013.3 |
| 20260507014843 | 51 | 265 | 0.0 | 0.0 | 0.00 | 0.53 | 0.53 | 65 | 1013.3 |
| 20260507014339 | 51 | 279 | 0.0 | 0.0 | 0.00 | 0.53 | 0.53 | 65 | 1013.2 |
| 20260507013835 | 51 | 340 | 3.0 | 3.0 | 0.00 | 0.53 | 0.53 | 65 | 1012.7 |
| 20260507013332 | 51 | 269 | 1.0 | 1.0 | 0.00 | 0.53 | 0.53 | 65 | 1012.5 |
| 20260507012830 | 51 | 286 | 3.0 | 5.0 | 0.00 | 0.53 | 0.53 | 65 | 1012.6 |
| 20260507012326 | 51 | 287 | 3.0 | 3.0 | 0.00 | 0.53 | 0.53 | 66 | 1012.8 |
| 20260507011823 | 51 | 270 | 1.0 | 1.0 | 0.00 | 0.53 | 0.53 | 66 | 1012.8 |
| 20260507011320 | 51 | 266 | 0.0 | 0.0 | 0.00 | 0.53 | 0.53 | 66 | 1012.8 |
| 20260507010820 | 51 | 283 | 1.0 | 1.0 | 0.00 | 0.53 | 0.53 | 65 | 1012.7 |
| 20260507010315 | 51 | 275 | 1.0 | 1.0 | 0.00 | 0.53 | 0.53 | 66 | 1013.0 |
| 20260507005813 | 51 | 268 | 0.0 | 0.0 | 0.00 | 0.53 | 0.53 | 66 | 1013.0 |
| 20260507005310 | 51 | 283 | 1.0 | 1.0 | 0.00 | 0.53 | 0.53 | 66 | 1013.1 |
| 20260507004806 | 51 | 275 | 1.0 | 1.0 | 0.00 | 0.53 | 0.53 | 67 | 1013.1 |
| 20260507004304 | 51 | 278 | 1.0 | 1.0 | 0.00 | 0.53 | 0.53 | 68 | 1013.2 |
| 20260507003801 | 52 | 273 | 1.0 | 1.0 | 0.00 | 0.53 | 0.53 | 66 | 1013.5 |
| 20260507003255 | 52 | 271 | 1.0 | 1.0 | 0.00 | 0.53 | 0.53 | 65 | 1013.5 |
| 20260507002751 | 52 | 290 | 1.0 | 1.0 | 0.00 | 0.53 | 0.53 | 66 | 1013.5 |
| 20260507002248 | 52 | 328 | 1.0 | 2.0 | 0.00 | 0.53 | 0.53 | 66 | 1013.3 |
| 20260507001745 | 52 | 281 | 1.0 | 2.0 | 0.00 | 0.53 | 0.53 | 70 | 1013.4 |
| 20260507001242 | 52 | 264 | 0.0 | 0.0 | 0.00 | 0.53 | 0.53 | 69 | 1013.3 |
| 20260507000738 | 53 | 264 | 1.0 | 1.0 | 0.00 | 0.53 | 0.53 | 69 | 1013.0 |
| 20260507000234 | 53 | 299 | 2.0 | 2.0 | 0.00 | 0.53 | 0.53 | 70 | 1012.8 |
| 20260506235731 | 53 | 286 | 1.0 | 2.0 | 0.00 | 0.53 | 0.53 | 72 | 1013.1 |
| 20260506235226 | 53 | 269 | 0.0 | 0.0 | 0.00 | 0.53 | 0.53 | 72 | 1013.2 |
| 20260506234724 | 53 | 264 | 0.0 | 0.0 | 0.00 | 0.53 | 0.53 | 71 | 1013.0 |
| 20260506234221 | 53 | 261 | 0.0 | 0.0 | 0.00 | 0.53 | 0.53 | 72 | 1012.4 |
| 20260506233719 | 53 | 263 | 0.0 | 0.0 | 0.00 | 0.53 | 0.53 | 71 | 1012.7 |
| 20260506233215 | 53 | 293 | 0.0 | 0.0 | 0.00 | 0.53 | 0.53 | 74 | 1012.6 |
| 20260506232711 | 53 | 260 | 0.0 | 0.0 | 0.00 | 0.53 | 0.53 | 73 | 1012.5 |
| 20260506232206 | 53 | 265 | 0.0 | 0.0 | 0.00 | 0.53 | 0.53 | 73 | 1012.4 |
| 20260506231704 | 53 | 251 | 0.0 | 0.0 | 0.00 | 0.53 | 0.53 | 73 | 1012.3 |
| 20260506231203 | 54 | 268 | 0.0 | 0.0 | 0.00 | 0.53 | 0.53 | 76 | 1012.4 |
| 20260506230658 | 53 | 262 | 0.0 | 0.0 | 0.00 | 0.53 | 0.53 | 71 | 1012.3 |
| 20260506230155 | 53 | 262 | 0.0 | 0.0 | 0.00 | 0.53 | 0.53 | 75 | 1012.1 |
| 20260506225652 | 54 | 263 | 0.0 | 0.0 | 0.00 | 0.53 | 0.53 | 75 | 1012.0 |
| 20260506225149 | 53 | 262 | 0.0 | 0.0 | 0.00 | 0.53 | 0.53 | 73 | 1012.1 |
| 20260506224645 | 53 | 263 | 0.0 | 0.0 | 0.00 | 0.53 | 0.53 | 74 | 1011.9 |
| 20260506224142 | 54 | 260 | 0.0 | 0.0 | 0.00 | 0.53 | 0.53 | 74 | 1012.1 |
| 20260506223638 | 53 | 263 | 0.0 | 0.0 | 0.00 | 0.53 | 0.53 | 73 | 1012.2 |
| 20260506223134 | 53 | 260 | 0.0 | 0.0 | 0.00 | 0.53 | 0.53 | 73 | 1012.3 |
| 20260506222631 | 53 | 263 | 0.0 | 0.0 | 0.00 | 0.53 | 0.53 | 72 | 1012.3 |
| 20260506222128 | 53 | 263 | 0.0 | 0.0 | 0.00 | 0.53 | 0.53 | 73 | 1012.1 |
| 20260506221625 | 53 | 263 | 0.0 | 0.0 | 0.00 | 0.53 | 0.53 | 75 | 1012.1 |
| 20260506221123 | 53 | 266 | 0.0 | 1.0 | 0.00 | 0.53 | 0.53 | 73 | 1012.0 |